Weather History for Mackinac Island, MI

Change the Weather History Date:

Tuesday, April 23, 2013

  Actual Average Record
Temperature  
Mean Temperature 43 °F -  
Max Temperature 52 °F 49 °F 71 °F (2001)
Min Temperature 33 °F 32 °F 26 °F (1986)
Degree Days  
Heating Degree Days 22    
Moisture  
Dew Point 35 °F    
Average Humidity 77    
Maximum Humidity 96    
Minimum Humidity 52    
Precipitation  
Precipitation 0.14 in - - ()
Sea Level Pressure  
Sea Level Pressure 29.93 in    
Wind  
Wind Speed 9 mph (SSW)    
Max Wind Speed 16 mph    
Max Gust Speed 25 mph    
Visibility 8 miles    
Events Rain , Snow    
Averages and records for this station are not official NWS values.
T = Trace of Precipitation, MM = Missing Value Source: NWS Daily Summary

Daily Weather History Graph

Daily Weather History Graph

Search for Another Location

Airport:

Trip Planner

Search our weather history database for the weather conditions in past years. The results will help you decide how hot, cold, wet, or windy it might be!

Date:

Astronomy

Apr. 23, 2013 Rise Set
Actual Time 6:38 AM EDT 8:36 PM EDT
Civil Twilight 6:06 AM EDT 9:08 PM EDT
Nautical Twilight 5:26 AM EDT 9:47 PM EDT
Astronomical Twilight 4:43 AM EDT 10:31 PM EDT
Moon 6:24 PM EDT (4/23) 5:13 AM EDT (4/23)
Length of Visible Light 15h 02m
Length of Day
13h 57m
Waxing Gibbous, 94% of the Moon is Illuminated
Apr 23
Waxing Gibbous
Apr 25
Full
May 2
Last Quarter
May 9
New
May 18
First Quarter

Hourly Weather History & Observations

Time (EDT) Temp. Windchill Dew Point Humidity Pressure Visibility Wind Dir Wind Speed Gust Speed Precip Events Conditions
12:15 AM 43.3 °F 39.2 °F 32.2 °F 65% 30.12 in 10.0 mi ESE 6.9 mph - N/A   Clear
12:35 AM 39.6 °F 34.0 °F 32.9 °F 77% 30.11 in 10.0 mi SE 8.1 mph - N/A   Clear
12:55 AM 41.0 °F 35.2 °F 33.1 °F 73% 30.11 in 10.0 mi SE 9.2 mph - N/A   Clear
1:15 AM 45.0 °F 40.1 °F 32.9 °F 63% 30.11 in 10.0 mi SE 9.2 mph - N/A   Clear
1:35 AM 45.9 °F 40.8 °F 32.9 °F 61% 30.10 in 10.0 mi SE 10.4 mph - N/A   Clear
1:55 AM 46.6 °F - 32.9 °F 59% 30.10 in 10.0 mi SE 10.4 mph 16.1 mph N/A   Clear
2:15 AM 46.8 °F - 32.4 °F 57% 30.09 in 10.0 mi SE 10.4 mph - N/A   Clear
2:35 AM 46.2 °F 41.7 °F 32.0 °F 58% 30.08 in 10.0 mi SE 9.2 mph - N/A   Clear
2:55 AM 46.4 °F 41.5 °F 31.8 °F 57% 30.07 in 10.0 mi SE 10.4 mph - N/A   Clear
3:15 AM 45.7 °F 41.0 °F 31.8 °F 58% 30.06 in 10.0 mi SE 9.2 mph - N/A   Clear
3:35 AM 45.9 °F 40.8 °F 31.1 °F 56% 30.05 in 10.0 mi SE 10.4 mph 16.1 mph N/A   Clear
3:55 AM 46.4 °F 41.9 °F 30.7 °F 54% 30.04 in 10.0 mi SE 9.2 mph 17.3 mph N/A   Clear
4:15 AM 46.4 °F 41.9 °F 30.2 °F 53% 30.04 in 10.0 mi SE 9.2 mph 18.4 mph N/A   Clear
4:35 AM 45.9 °F 40.0 °F 30.2 °F 54% 30.03 in 10.0 mi SE 12.7 mph 17.3 mph N/A   Clear
4:55 AM 45.9 °F 40.4 °F 30.0 °F 54% 30.01 in 10.0 mi SSE 11.5 mph 17.3 mph N/A   Clear
5:15 AM 45.9 °F 40.8 °F 29.8 °F 54% 30.00 in 10.0 mi SSE 10.4 mph 17.3 mph N/A   Clear
5:35 AM 46.4 °F 41.9 °F 29.5 °F 52% 29.99 in 10.0 mi SE 9.2 mph 16.1 mph N/A   Clear
6:15 AM 46.0 °F 41.4 °F 30.0 °F 54% 29.96 in 10.0 mi SE 9.2 mph - N/A   Clear
6:35 AM 45.7 °F 40.2 °F 30.4 °F 55% 29.95 in 10.0 mi SE 11.5 mph 17.3 mph N/A   Clear
6:55 AM 45.7 °F 40.6 °F 30.7 °F 56% 29.95 in 10.0 mi SE 10.4 mph 17.3 mph N/A   Clear
7:15 AM 45.0 °F 39.3 °F 31.5 °F 59% 29.94 in 10.0 mi SE 11.5 mph 17.3 mph N/A   Clear
7:36 AM 45.7 °F 40.6 °F 31.6 °F 58% 29.93 in 10.0 mi SE 10.4 mph 18.4 mph N/A   Clear
7:55 AM 46.2 °F 41.2 °F 31.6 °F 57% 29.92 in 10.0 mi SE 10.4 mph 17.3 mph N/A   Scattered Clouds
8:15 AM 46.6 °F - 32.0 °F 57% 29.92 in 10.0 mi SE 11.5 mph 18.4 mph N/A   Overcast
8:36 AM 44.6 °F 40.2 °F 32.7 °F 63% 29.91 in 10.0 mi SE 8.1 mph - N/A   Mostly Cloudy
8:55 AM 41.2 °F 37.3 °F 33.4 °F 74% 29.91 in 10.0 mi East 5.8 mph - N/A   Mostly Cloudy
9:15 AM 40.3 °F - 33.8 °F 78% 29.92 in 10.0 mi Calm Calm - N/A   Mostly Cloudy
9:36 AM 41.0 °F 38.0 °F 34.3 °F 77% 29.91 in 10.0 mi East 4.6 mph - N/A   Overcast
9:55 AM 41.2 °F 39.2 °F 34.7 °F 78% 29.91 in 10.0 mi East 3.5 mph - N/A   Overcast
10:15 AM 41.0 °F - 34.9 °F 79% 29.91 in 7.0 mi Calm Calm - N/A   Unknown
10:36 AM 41.2 °F 39.2 °F 36.9 °F 85% 29.88 in 4.0 mi East 3.5 mph - N/A   Overcast
10:55 AM 43.3 °F 39.9 °F 38.7 °F 84% 29.89 in 2.0 mi SE 5.8 mph - 0.03 in   Unknown
11:15 AM 43.3 °F 39.2 °F 39.6 °F 87% 29.88 in 10.0 mi SE 6.9 mph - N/A   Light Drizzle
11:36 AM 43.7 °F 39.7 °F 39.6 °F 85% 29.88 in 10.0 mi SSE 6.9 mph - N/A   Overcast
11:55 AM 46.6 °F - 39.9 °F 78% 29.87 in 10.0 mi SSE 9.2 mph - N/A   Overcast
12:15 PM 47.3 °F - 39.9 °F 76% 29.86 in 10.0 mi SSE 8.1 mph - N/A   Overcast
12:35 PM 48.6 °F - 41.2 °F 76% 29.85 in 10.0 mi SSE 8.1 mph - N/A   Overcast
12:55 PM 51.1 °F - 42.4 °F 72% 29.85 in 10.0 mi South 5.8 mph - N/A   Mostly Cloudy
1:15 PM 52.2 °F - 42.4 °F 69% 29.85 in 10.0 mi South 5.8 mph - N/A   Overcast
1:35 PM 51.8 °F - 42.3 °F 70% 29.84 in 10.0 mi SW 9.2 mph - N/A   Overcast
1:55 PM 52.0 °F - 42.4 °F 70% 29.84 in 10.0 mi WSW 5.8 mph - N/A   Overcast
2:15 PM 48.6 °F - 41.2 °F 76% 29.85 in 10.0 mi WSW 13.8 mph 25.3 mph N/A Rain Light Rain
2:35 PM 45.5 °F 38.6 °F 41.0 °F 84% 29.85 in 7.0 mi WSW 16.1 mph 24.2 mph N/A Rain Light Rain
2:55 PM 43.0 °F 38.2 °F 39.9 °F 89% 29.85 in 7.0 mi West 8.1 mph - N/A   Overcast
3:15 PM 41.9 °F 36.9 °F 39.2 °F 90% 29.84 in 5.0 mi West 8.1 mph - N/A   Overcast
3:35 PM 41.0 °F 34.3 °F 38.7 °F 91% 29.85 in 1.8 mi West 11.5 mph - N/A Rain Light Rain
3:55 PM 40.1 °F 34.1 °F 38.3 °F 93% 29.85 in 1.0 mi WSW 9.2 mph - 0.02 in   Overcast
4:15 PM 39.6 °F 33.0 °F 37.9 °F 94% 29.86 in 0.8 mi West 10.4 mph - 0.01 in   Overcast
4:35 PM 39.2 °F 32.0 °F 37.8 °F 95% 29.86 in 2.0 mi West 11.5 mph - 0.03 in   Overcast
4:55 PM 38.8 °F 30.8 °F 37.4 °F 95% 29.86 in 4.0 mi West 13.8 mph - 0.04 in   Unknown
5:15 PM 39.4 °F 32.7 °F 37.9 °F 95% 29.86 in 5.0 mi WNW 10.4 mph - 0.01 in   Unknown
5:35 PM 39.2 °F 32.0 °F 37.4 °F 93% 29.86 in 3.0 mi WNW 11.5 mph - 0.02 in   Overcast
5:55 PM 38.7 °F 31.8 °F 37.0 °F 94% 29.87 in 3.0 mi WNW 10.4 mph 16.1 mph 0.04 in   Overcast
6:15 PM 38.3 °F 31.4 °F 36.7 °F 94% 29.87 in 5.0 mi WNW 10.4 mph 17.3 mph 0.01 in   Overcast
6:35 PM 37.8 °F 30.7 °F 36.0 °F 93% 29.87 in 5.0 mi NW 10.4 mph 17.3 mph 0.01 in Snow Light Snow
6:55 PM 36.7 °F 27.6 °F 34.9 °F 93% 29.88 in 7.0 mi NW 15.0 mph 21.9 mph 0.01 in Snow Light Snow
7:16 PM 35.6 °F 29.2 °F 33.8 °F 93% 29.89 in 7.0 mi NW 8.1 mph 19.6 mph N/A Snow Light Snow
7:35 PM 35.1 °F 28.6 °F 33.4 °F 94% 29.88 in 4.0 mi NW 8.1 mph - N/A Snow Light Snow
7:55 PM 34.5 °F 27.9 °F 32.9 °F 94% 29.89 in 1.5 mi WNW 8.1 mph - N/A Snow Light Snow
8:16 PM 34.2 °F 27.5 °F 32.7 °F 94% 29.89 in 0.8 mi WNW 8.1 mph - N/A Snow Light Snow
8:35 PM 34.0 °F 26.6 °F 32.7 °F 95% 29.88 in 1.5 mi WNW 9.2 mph - N/A Snow Light Snow
8:55 PM 34.0 °F 26.0 °F 32.9 °F 96% 29.88 in 10.0 mi WNW 10.4 mph 16.1 mph N/A Snow Light Snow
9:16 PM 34.2 °F 26.8 °F 32.5 °F 94% 29.89 in 10.0 mi WNW 9.2 mph - N/A   Overcast
9:35 PM 34.2 °F 26.2 °F 32.4 °F 93% 29.89 in 10.0 mi WNW 10.4 mph 16.1 mph N/A   Overcast
9:55 PM 34.2 °F 26.2 °F 32.2 °F 92% 29.90 in 10.0 mi WNW 10.4 mph 16.1 mph N/A   Overcast
10:15 PM 34.2 °F 26.8 °F 32.0 °F 92% 29.89 in 10.0 mi WNW 9.2 mph - N/A   Overcast
10:35 PM 34.0 °F 25.5 °F 32.0 °F 92% 29.89 in 10.0 mi WNW 11.5 mph 16.1 mph N/A   Overcast
10:56 PM 34.0 °F 26.0 °F 32.0 °F 92% 29.89 in 10.0 mi WNW 10.4 mph - N/A   Overcast
11:15 PM 34.0 °F 25.5 °F 32.0 °F 92% 29.89 in 10.0 mi WNW 11.5 mph 16.1 mph N/A   Overcast
11:35 PM 34.0 °F 26.0 °F 31.8 °F 92% 29.88 in 10.0 mi WNW 10.4 mph 16.1 mph N/A   Overcast
11:56 PM 33.8 °F 26.4 °F 31.8 °F 92% 29.88 in 10.0 mi NW 9.2 mph 16.1 mph N/A   Overcast